Showing default

JCSAT 18, 44868

Orbit data source: Space-Track

JCSAT 18, 44868 is a Japanese payload satellite in GEO that was launched on Tue, 17 Dec 2019 UTC via an FALCON 9 launch vehicle from the Air Force Eastern Test Range (AFETR). Payload-class satellites include a variety of spacecraft equipped with specific instruments for various scientific and technological missions. These include communications satellites like Starlink; space stations such as the ISS; scientific satellites like the Hubble; Earth observation satellites from companies like Planet Labs, Umbra, and HawkEye 360; GPS; miniature CubeSats for education and research; and military/defense satellites.

Not visible in the next 10 days
Identifier
44868, 2019-091A
Orbit
GEO
Country
Flag of JPJP / JPN
Related business
Manufacturer
Boeing/ES
Mission
Operational Commercial Communications
Bus & Motor
BSS-702MP, R-4D?
Mass
6,800 kg wet, ~3,500 kg dry
Launch date (UTC)
2019-12-17 (7 years ago)
Launch vehicle
FALCON 9
Launch site
Air Force Eastern Test Range (AFETR)
Object type
Payload
Rocket body
Debris
Shape & HBR
Box + 2 Pan, Unknown HBR
Radar Cross Section
56.564 m², Large (>1 m²)

Expand to show TLE details & history
Last TLE update: 2 days ago

TLE from 2 days ago
0 JCSAT 18
1 44868U 19091A   26171.46595616 -.00000205  00000-0  00000+0 0  9996
2 44868   0.0402 198.2830 0000323 282.1111 105.9994  1.00272178 24048
Epoch: 2026-06-20T11:10Z
TLE epoch observation values (Epoch: 2026-06-20T11:10:58.612Z)
Latitude
-0.01281°
Longitude
149.98489°
Altitude
35,786.358 km
Speed
3.075 km/s
True Right ascension
15h 05m 38s
True Declination
0° 00' 46"
Sunlit
Object was in daylight at epoch
Visualization orbit readout
Latitude
Unknown
Longitude
Unknown
Altitude
Unknown
Speed
Unknown
Apparent Right ascension
Unknown
Apparent Declination
Unknown
Sunlit
N/A
Visualization observer readout
Local Sidereal Time
21:38:08
Azimuth
Unknown
Elevation
Unknown
Doppler factor
Unknown
Orbital elements
Apogee altitude
35,788.917 km
Perigee altitude
35,786.193 km
Semi-major axis
42,165.692 km
Eccentricity
0.00003
Inclination
0.0402°
RAAN
198.283°
Arg. of periapsis
282.1111°
True anomaly
106.00296°
Mean anomaly
105.9994°
Eccentric anomaly
106.00118°
Mean motion
0.25067 °/min
Orbital period
1,436.14 mins
BSTAR
0
Loading maneuver chart data...
Computing Atmospheric mass density...
Loading historical data...
Loading historical data...
Loading historical data...
Loading historical data...
Loading historical data...
Loading historical data...
Loading historical data...
Other satellites on launch #91 in the year 2019 (2019-12-17 UTC)

Documentation

Showing up to 5 results
|